GW4420 Weather Reports


time (UTC)temp
C
wind
direction
speed
KPH
gust
KPH
rain 1hr
cm
rain 24hr
cm
rain mn
cm
humidity
%
barometer
mb
20260510105931 21 27 8.0 11.3 0.00 0.33 0.33 91 1018.7
20260510105426 21 69 6.4 9.7 0.00 0.33 0.33 91 1018.7
20260510104922 21 255 6.4 12.9 0.00 0.33 0.33 91 1018.7
20260510104419 21 28 4.8 14.5 0.00 0.33 0.33 90 1018.4
20260510103915 21 42 4.8 12.9 0.00 0.33 0.33 90 1018.3
20260510103408 21 42 3.2 14.5 0.00 0.33 0.33 90 1018.3
20260510102903 21 43 4.8 11.3 0.00 0.33 0.33 90 1018.2
20260510102359 21 103 3.2 11.3 0.00 0.33 0.33 90 1018.4
20260510101856 21 32 6.4 12.9 0.00 0.33 0.33 90 1018.3
20260510101354 21 8 6.4 11.3 0.00 0.33 0.33 90 1018.1
20260510100850 21 22 4.8 6.4 0.00 0.33 0.33 90 1018.0
20260510100342 21 39 1.6 4.8 0.00 0.33 0.33 90 1018.3
20260510095838 21 45 6.4 11.3 0.00 0.33 0.33 89 1018.2
20260510095333 21 345 8.0 12.9 0.00 0.33 0.33 88 1018.3
20260510094833 21 37 6.4 9.7 0.00 0.33 0.33 88 1018.2
20260510094328 21 31 6.4 20.9 0.00 0.33 0.33 87 1017.9
20260510093825 21 10 3.2 11.3 0.00 0.33 0.33 87 1018.1
20260510093321 21 40 3.2 6.4 0.00 0.33 0.33 87 1017.9
20260510092817 21 48 4.8 12.9 0.00 0.33 0.33 87 1017.9
20260510092313 21 70 9.7 17.7 0.00 0.33 0.33 87 1017.7
20260510091809 21 45 8.0 9.7 0.00 0.33 0.33 87 1017.7
20260510091306 21 20 6.4 16.1 0.00 0.33 0.33 87 1017.9
20260510090803 21 20 3.2 9.7 0.00 0.33 0.33 88 1017.9
20260510090300 21 15 8.0 12.9 0.00 0.33 0.33 88 1017.8
20260510085755 21 21 1.6 16.1 0.00 0.33 0.33 88 1017.8
20260510085249 21 40 4.8 6.4 0.00 0.33 0.33 88 1017.8
20260510084745 21 10 3.2 11.3 0.00 0.33 0.33 88 1017.8
20260510084243 21 48 3.2 9.7 0.00 0.33 0.33 88 1017.9
20260510083739 21 13 6.4 14.5 0.00 0.33 0.33 87 1017.7
20260510083236 21 25 1.6 14.5 0.00 0.33 0.33 87 1017.7
20260510082732 22 50 6.4 12.9 0.00 0.33 0.33 86 1017.5
20260510082229 22 42 4.8 11.3 0.00 0.33 0.33 86 1017.5
20260510081727 22 56 3.2 6.4 0.00 0.33 0.33 86 1017.5
20260510081224 22 57 4.8 20.9 0.00 0.33 0.33 86 1018.0
20260510080719 22 23 3.2 11.3 0.00 0.33 0.33 86 1018.0
20260510080215 22 50 6.4 14.5 0.00 0.33 0.33 86 1018.1
20260510075712 22 78 0.0 6.4 0.00 0.33 0.33 86 1017.8
20260510075210 22 16 11.3 17.7 0.00 0.33 0.33 86 1017.6
20260510074707 22 353 6.4 20.9 0.00 0.33 0.33 86 1018.0
20260510074203 22 26 1.6 17.7 0.00 0.33 0.33 86 1017.6
20260510073700 22 5 6.4 9.7 0.00 0.33 0.33 85 1017.9
20260510073155 22 12 11.3 14.5 0.00 0.33 0.33 85 1017.6
20260510072651 22 306 8.0 12.9 0.00 0.33 0.33 85 1017.4
20260510072148 22 33 3.2 11.3 0.00 0.33 0.33 85 1017.5
20260510071644 22 299 3.2 6.4 0.00 0.33 0.33 86 1017.9
20260510071142 22 59 8.0 11.3 0.00 0.33 0.33 86 1017.8
20260510070639 22 52 4.8 12.9 0.00 0.33 0.33 85 1018.0
20260510070137 22 32 0.0 11.3 0.00 0.33 0.33 85 1018.1
20260510065632 22 51 6.4 11.3 0.00 0.33 0.33 84 1017.9
20260510065128 23 135 9.7 16.1 0.00 0.33 0.33 83 1017.7
20260510064624 23 3 6.4 14.5 0.00 0.33 0.33 84 1017.8
20260510064121 22 19 3.2 14.5 0.00 0.33 0.33 85 1017.8
20260510063618 23 288 12.9 17.7 0.00 0.33 0.33 83 1017.9
20260510063115 23 356 6.4 17.7 0.00 0.33 0.33 84 1017.6
20260510062611 22 90 3.2 6.4 0.00 0.33 0.33 86 1017.9
20260510062107 22 14 6.4 14.5 0.00 0.33 0.33 86 1017.7
20260510061603 22 30 3.2 16.1 0.00 0.33 0.33 86 1018.1
20260510061100 22 294 3.2 9.7 0.00 0.33 0.33 87 1018.0
20260510060556 22 64 1.6 4.8 0.00 0.33 0.33 88 1018.3
20260510060053 22 71 6.4 14.5 0.00 0.33 0.33 87 1018.1
20260510055548 22 21 9.7 14.5 0.00 0.33 0.33 88 1018.2
20260510055047 22 225 3.2 9.7 0.00 0.33 0.33 87 1018.2
20260510054543 22 83 3.2 6.4 0.00 0.33 0.33 88 1018.1
20260510054037 22 35 1.6 6.4 0.00 0.33 0.33 88 1018.2
20260510053532 21 323 4.8 12.9 0.00 0.33 0.33 88 1018.5
20260510053030 21 320 4.8 14.5 0.00 0.33 0.33 88 1018.5
20260510052526 22 358 1.6 11.3 0.00 0.33 0.33 87 1018.6
20260510052022 22 37 8.0 12.9 0.00 0.33 0.33 86 1018.6
20260510051517 22 28 3.2 6.4 0.00 0.33 0.33 85 1018.7
20260510051014 22 321 4.8 11.3 0.00 0.33 0.33 85 1018.7
20260510050512 22 15 4.8 9.7 0.00 0.33 0.33 84 1018.8
20260510050008 22 301 8.0 14.5 0.00 0.33 0.33 82 1018.9
20260510045506 22 351 9.7 12.9 0.00 0.33 0.33 82 1018.9
20260510045001 23 89 1.6 14.5 0.00 0.33 0.33 81 1018.9
20260510044459 23 33 11.3 16.1 0.00 0.33 0.33 81 1018.9
20260510043955 23 304 16.1 27.4 0.00 0.33 0.33 80 1018.7
20260510043451 23 41 6.4 17.7 0.00 0.33 0.33 80 1018.8
20260510042950 23 358 6.4 14.5 0.00 0.33 0.33 80 1019.0
20260510042446 23 73 1.6 9.7 0.00 0.33 0.33 82 1018.8
20260510041941 23 31 6.4 11.3 0.00 0.33 0.33 81 1019.1
20260510041439 23 286 9.7 17.7 0.00 0.33 0.33 81 1019.1
20260510040936 23 27 9.7 14.5 0.00 0.33 0.33 82 1019.0
20260510040433 23 34 6.4 16.1 0.00 0.33 0.33 81 1019.0
20260510035928 23 5 9.7 16.1 0.00 0.33 0.33 82 1019.2
20260510035425 22 62 8.0 25.7 0.00 0.33 0.33 81 1019.1
20260510034924 23 286 16.1 25.7 0.00 0.33 0.33 81 1019.1
20260510034423 23 51 6.4 12.9 0.00 0.33 0.33 81 1019.2
20260510033919 23 308 4.8 17.7 0.00 0.33 0.33 82 1019.1
20260510033416 23 336 4.8 9.7 0.00 0.33 0.33 82 1019.5
20260510032912 22 25 4.8 11.3 0.00 0.33 0.33 84 1019.2
20260510032409 22 29 9.7 17.7 0.00 0.33 0.33 84 1019.4
20260510031905 22 7 4.8 17.7 0.00 0.33 0.33 84 1019.2
20260510031400 22 36 11.3 14.5 0.00 0.33 0.33 84 1019.2
20260510030855 22 336 8.0 12.9 0.00 0.33 0.33 84 1019.2
20260510030352 22 44 9.7 22.5 0.00 0.33 0.33 82 1019.1
20260510025850 22 20 8.0 14.5 0.00 0.33 0.33 82 1019.2
20260510025347 22 52 3.2 14.5 0.00 0.33 0.33 82 1019.2
20260510024844 22 71 6.4 14.5 0.00 0.33 0.33 83 1019.4
20260510024340 22 11 3.2 4.8 0.00 0.33 0.33 85 1019.5
20260510023836 22 352 4.8 14.5 0.00 0.33 0.33 84 1019.6
20260510023333 22 53 8.0 14.5 0.00 0.33 0.33 84 1019.7
20260510022831 22 82 1.6 6.4 0.00 0.33 0.33 85 1019.8
20260510022329 22 0 3.2 9.7 0.00 0.33 0.33 85 1019.9
20260510021828 22 88 4.8 16.1 0.00 0.33 0.33 86 1020.0
20260510021326 21 32 3.2 11.3 0.00 0.33 0.33 86 1019.9
20260510020823 21 23 6.4 6.4 0.00 0.33 0.33 86 1019.9
20260510020322 21 25 6.4 14.5 0.00 0.33 0.33 85 1019.9
20260510015819 21 304 1.6 9.7 0.00 0.33 0.33 86 1020.1
20260510015315 21 12 4.8 9.7 0.00 0.33 0.33 86 1019.9
20260510014810 21 46 3.2 9.7 0.00 0.33 0.33 86 1020.0
20260510014308 21 332 6.4 12.9 0.00 0.33 0.33 86 1019.9
20260510013804 21 25 4.8 17.7 0.00 0.33 0.33 87 1020.0
20260510013300 21 354 9.7 17.7 0.00 0.33 0.33 87 1020.3
20260510012755 21 39 3.2 11.3 0.00 0.33 0.33 88 1019.9
20260510012255 21 4 9.7 12.9 0.00 0.33 0.33 88 1020.1
20260510011754 21 270 6.4 14.5 0.00 0.33 0.33 88 1020.1
20260510011250 21 314 3.2 12.9 0.00 0.33 0.33 89 1020.2
20260510010748 21 5 6.4 11.3 0.00 0.33 0.33 89 1020.1
20260510010244 21 39 4.8 16.1 0.00 0.33 0.33 90 1020.0
20260510005741 21 323 8.0 14.5 0.00 0.33 0.33 90 1020.1
20260510005237 21 334 9.7 12.9 0.00 0.33 0.33 90 1019.9
20260510004735 21 63 3.2 11.3 0.00 0.33 0.33 91 1019.8
20260510004233 21 75 4.8 6.4 0.00 0.33 0.33 93 1019.9
20260510003730 20 57 0.0 9.7 0.00 0.33 0.33 93 1019.6
20260510003226 20 32 6.4 11.3 0.00 0.33 0.33 92 1020.0
20260510002725 20 55 1.6 11.3 0.00 0.33 0.33 92 1019.8
20260510002223 20 44 1.6 6.4 0.00 0.33 0.33 93 1019.9
20260510001719 20 357 9.7 17.7 0.18 0.33 0.33 92 1020.0
20260510001218 20 40 4.8 14.5 0.18 0.33 0.33 92 1019.9
20260510000713 20 48 3.2 6.4 0.00 0.30 0.30 93 1020.0
20260510000211 20 42 3.2 9.7 0.00 0.30 0.30 92 1019.7
20260509235707 20 47 3.2 3.2 0.00 0.30 0.30 92 1020.0
20260509235204 20 47 3.2 9.7 0.00 0.30 0.30 92 1020.0
20260509234700 20 79 0.0 4.8 0.00 0.30 0.30 92 1019.7
20260509234157 20 36 3.2 9.7 0.00 0.30 0.30 92 1019.8
20260509233655 20 36 4.8 6.4 0.00 0.30 0.30 92 1019.7
20260509233153 20 103 0.0 4.8 0.00 0.30 0.30 92 1019.7
20260509232649 20 30 4.8 11.3 0.00 0.30 0.30 92 1019.8
20260509232146 20 85 3.2 4.8 0.00 0.30 0.30 92 1020.0
20260509231642 20 91 0.0 4.8 0.00 0.30 0.30 92 1019.9
20260509231139 20 73 1.6 3.2 0.00 0.30 0.30 92 1019.9
20260509230636 20 24 1.6 3.2 0.13 0.30 0.30 92 1019.6
20260509230133 20 16 6.4 6.4 0.30 0.30 0.30 92 1019.5
20260509225629 20 45 0.0 6.4 0.36 0.28 0.28 92 1019.5
20260509225125 20 43 0.0 3.2 0.18 0.25 0.25 92 1019.6
20260509224620 20 341 0.0 9.7 0.13 0.23 0.23 91 1019.7
20260509224118 20 53 0.0 3.2 0.30 0.23 0.23 91 1019.7
20260509223614 20 79 0.0 1.6 0.18 0.20 0.20 91 1019.7
20260509223112 20 88 0.0 3.2 0.00 0.18 0.18 91 1019.7
20260509222608 20 45 1.6 1.6 0.00 0.18 0.18 91 1019.5
20260509222104 20 94 0.0 3.2 0.00 0.18 0.18 91 1019.4
20260509221600 20 70 0.0 1.6 0.00 0.18 0.18 91 1019.3
20260509221056 20 71 1.6 3.2 0.00 0.18 0.18 91 1019.1
20260509220552 20 14 3.2 4.8 0.00 0.18 0.18 91 1019.1
20260509220048 20 88 0.0 1.6 0.00 0.18 0.18 91 1019.2
20260509215544 20 62 1.6 4.8 0.13 0.18 0.18 91 1019.1
20260509215041 20 86 0.0 1.6 0.13 0.18 0.18 91 1019.2
20260509214538 20 283 1.6 4.8 0.00 0.15 0.15 90 1019.2
20260509214035 20 82 0.0 0.0 0.00 0.15 0.15 90 1019.0
20260509213531 20 94 0.0 0.0 0.00 0.15 0.15 90 1019.1
20260509213028 20 92 0.0 3.2 0.00 0.15 0.15 90 1019.1
20260509212525 20 95 0.0 1.6 0.00 0.15 0.15 90 1018.8
20260509212023 20 82 0.0 0.0 0.00 0.15 0.15 90 1019.1
20260509211518 20 110 0.0 1.6 0.00 0.15 0.15 90 1018.8
20260509211015 20 85 0.0 4.8 0.00 0.15 0.15 90 1018.5
20260509210512 20 89 1.6 3.2 0.00 0.15 0.15 90 1018.6
20260509210008 20 16 3.2 4.8 0.00 0.15 0.15 90 1018.4
20260509205502 20 48 3.2 6.4 0.00 0.15 0.15 91 1018.2
20260509204958 20 74 0.0 4.8 0.00 0.15 0.15 91 1018.5
20260509204454 20 47 1.6 6.4 0.00 0.15 0.15 90 1018.5
20260509203951 20 35 1.6 4.8 0.18 0.15 0.15 90 1018.7
20260509203446 20 49 0.0 3.2 0.18 0.15 0.15 90 1018.7
20260509202944 20 70 0.0 3.2 0.30 0.13 0.13 90 1018.4
20260509202440 20 52 0.0 3.2 0.18 0.10 0.10 90 1018.6
20260509201936 20 80 0.0 1.6 0.00 0.08 0.08 90 1018.6
20260509201431 20 96 0.0 0.0 0.00 0.08 0.08 89 1018.7
20260509200928 20 37 1.6 3.2 0.00 0.08 0.08 90 1018.8
20260509200423 20 36 0.0 3.2 0.00 0.08 0.08 89 1018.6
20260509195919 20 50 1.6 1.6 0.00 0.08 0.08 89 1018.7
20260509195415 20 62 0.0 1.6 0.00 0.08 0.08 89 1018.6
20260509194909 20 95 0.0 1.6 0.00 0.08 0.08 89 1018.7
20260509194405 20 54 3.2 4.8 0.00 0.08 0.08 89 1018.7
20260509193902 20 43 1.6 4.8 0.13 0.08 0.08 89 1018.6
20260509193401 20 51 0.0 3.2 0.13 0.08 0.08 89 1018.8
20260509192857 20 91 0.0 1.6 0.00 0.05 0.05 89 1018.7
20260509192354 20 26 1.6 3.2 0.00 0.05 0.05 89 1018.9
20260509191849 20 96 0.0 3.2 0.00 0.05 0.05 89 1018.9
20260509191345 20 51 0.0 4.8 0.00 0.05 0.05 88 1018.8
20260509190841 20 30 1.6 4.8 0.00 0.05 0.05 88 1018.9
20260509190338 20 22 3.2 4.8 0.18 0.05 0.05 88 1018.7
20260509185835 20 33 3.2 6.4 0.18 0.05 0.05 88 1018.8
20260509185332 20 59 0.0 6.4 0.13 0.03 0.03 87 1018.6
20260509184830 20 30 4.8 4.8 0.13 0.03 0.03 87 1018.8
20260509184326 20 83 0.0 6.4 0.00 0.00 0.00 87 1019.1
20260509183824 20 56 1.6 4.8 0.00 0.00 0.00 88 1018.8
20260509183318 20 79 3.2 4.8 0.00 0.00 0.00 88 1019.0
20260509182814 20 67 0.0 1.6 0.00 0.00 0.00 88 1019.2
20260509182312 20 42 1.6 3.2 0.00 0.00 0.00 88 1018.8
20260509181809 20 28 0.0 3.2 0.00 0.00 0.00 88 1018.9
20260509181306 20 51 1.6 3.2 0.00 0.00 0.00 88 1018.8
20260509180804 20 29 1.6 3.2 0.00 0.00 0.00 88 1018.8
20260509180259 20 3 3.2 3.2 0.00 0.00 0.00 88 1018.6
20260509175756 20 45 1.6 3.2 0.00 0.00 0.00 88 1018.7
20260509175252 20 77 0.0 3.2 0.00 0.00 0.00 88 1018.7
20260509174748 20 39 0.0 1.6 0.00 0.00 0.00 88 1018.6
20260509174244 20 77 4.8 6.4 0.00 0.00 0.00 88 1018.5
20260509173740 20 10 3.2 6.4 0.00 0.00 0.00 87 1018.6
20260509173236 20 22 1.6 4.8 0.00 0.00 0.00 87 1018.8
20260509172732 20 60 1.6 11.3 0.00 0.00 0.00 87 1018.6
20260509172229 20 51 3.2 4.8 0.00 0.00 0.00 87 1018.6
20260509171724 20 44 3.2 4.8 0.00 0.00 0.00 87 1018.7
20260509171221 20 49 0.0 9.7 0.00 0.00 0.00 87 1018.7
20260509170718 20 76 4.8 4.8 0.00 0.00 0.00 87 1018.7
20260509170214 20 26 8.0 11.3 0.00 0.00 0.00 87 1018.7
20260509165712 20 345 4.8 6.4 0.00 0.00 0.00 87 1018.6
20260509165207 20 31 4.8 11.3 0.00 0.00 0.00 87 1018.6
20260509164704 20 137 3.2 12.9 0.00 0.00 0.00 87 1018.6
20260509164159 20 26 1.6 11.3 0.00 0.00 0.00 87 1018.8
20260509163657 20 358 4.8 14.5 0.00 0.00 0.00 88 1018.8
20260509163153 20 43 3.2 4.8 0.00 0.00 0.00 88 1019.2
20260509162651 20 315 1.6 9.7 0.00 0.00 0.00 88 1019.1
20260509162146 20 25 4.8 9.7 0.00 0.00 0.00 88 1019.2
20260509161642 20 79 0.0 3.2 0.00 0.00 0.00 88 1019.1
20260509161137 20 41 3.2 4.8 0.00 0.00 0.00 88 1019.4
20260509160634 20 43 3.2 9.7 0.00 0.00 0.00 88 1019.2
20260509160129 20 57 0.0 9.7 0.00 0.00 0.00 88 1019.4
20260509155626 20 37 3.2 9.7 0.00 0.00 0.00 88 1019.2
20260509155122 20 46 1.6 9.7 0.00 0.00 0.00 88 1019.3
20260509154617 20 64 3.2 9.7 0.00 0.00 0.00 88 1019.3
20260509154115 20 71 1.6 4.8 0.00 0.00 0.00 88 1019.6
20260509153612 20 70 3.2 11.3 0.00 0.00 0.00 88 1019.3
20260509153109 20 68 4.8 11.3 0.00 0.00 0.00 89 1019.9
20260509152605 20 53 1.6 4.8 0.00 0.00 0.00 89 1019.6
20260509152102 20 59 3.2 4.8 0.00 0.00 0.00 89 1019.7
20260509151558 20 28 4.8 4.8 0.00 0.00 0.00 89 1019.7
20260509151056 20 45 0.0 6.4 0.00 0.00 0.00 89 1020.0
20260509150553 20 43 1.6 9.7 0.00 0.00 0.00 89 1020.0
20260509150052 20 34 6.4 12.9 0.00 0.00 0.00 90 1020.0
20260509145547 20 20 6.4 9.7 0.00 1.85 1.85 90 1020.0
20260509145042 20 13 3.2 11.3 0.00 1.85 1.85 90 1020.1
20260509144540 19 36 3.2 4.8 0.00 1.85 1.85 90 1020.0
20260509144037 19 58 1.6 4.8 0.00 1.85 1.85 90 1020.1
20260509143534 19 53 3.2 12.9 0.00 1.85 1.85 90 1020.0
20260509143032 19 18 3.2 9.7 0.00 1.85 1.85 91 1020.4
20260509142527 20 65 6.4 12.9 0.00 1.85 1.85 91 1020.8
20260509142023 20 59 1.6 4.8 0.00 1.85 1.85 91 1020.7
20260509141519 20 27 6.4 9.7 0.00 1.85 1.85 91 1020.7
20260509141016 20 61 0.0 6.4 0.00 1.85 1.85 90 1020.5
20260509140513 19 47 1.6 6.4 0.00 1.85 1.85 90 1020.7
20260509140011 19 23 6.4 11.3 0.00 1.85 1.85 90 1020.5
20260509135508 19 36 1.6 6.4 0.00 1.85 1.85 90 1020.6
20260509135005 19 26 3.2 6.4 0.00 1.85 1.85 90 1020.4
20260509134502 19 58 4.8 6.4 0.00 1.85 1.85 90 1020.5
20260509134000 19 80 0.0 4.8 0.00 1.85 1.85 90 1020.4
20260509133456 19 69 1.6 4.8 0.00 1.85 1.85 90 1020.5
20260509132954 18 104 0.0 6.4 0.00 1.85 1.85 90 1020.5
20260509132452 18 69 1.6 9.7 0.18 1.85 1.85 90 1020.3
20260509131949 18 35 3.2 6.4 0.18 1.85 1.85 90 1020.4
20260509131447 18 46 1.6 3.2 0.00 1.83 1.83 90 1020.3
20260509130943 18 74 1.6 6.4 0.00 1.83 1.83 89 1020.3
20260509130438 18 92 0.0 4.8 0.00 1.83 1.83 89 1020.4
20260509125935 18 37 3.2 3.2 0.00 1.83 1.83 89 1020.6
20260509125432 18 20 0.0 6.4 0.00 1.83 1.83 89 1020.6
20260509124928 18 67 1.6 3.2 0.00 1.83 1.83 89 1020.6
20260509124425 18 63 0.0 3.2 0.13 1.83 1.83 89 1020.5
20260509123923 18 48 1.6 3.2 0.00 1.80 1.80 88 1020.5
20260509123420 18 34 3.2 9.7 0.00 1.80 1.80 88 1020.4
20260509122916 18 43 3.2 4.8 0.00 1.80 1.80 88 1020.5
20260509122413 18 358 1.6 3.2 0.00 1.80 1.80 88 1020.5
20260509121909 18 74 1.6 6.4 0.00 1.80 1.80 88 1020.5
20260509121406 18 92 1.6 3.2 0.00 1.80 1.80 88 1020.5
20260509120905 18 42 3.2 4.8 0.00 1.80 1.80 88 1020.3
20260509120402 18 32 3.2 9.7 0.00 1.80 1.80 89 1020.5
20260509115859 18 85 0.0 9.7 0.00 1.80 1.80 89 1020.5
20260509115357 18 54 1.6 3.2 0.00 1.80 1.80 89 1020.6
20260509114855 18 72 0.0 0.0 0.00 1.80 1.80 89 1020.5
20260509114353 18 48 1.6 3.2 0.00 1.80 1.80 89 1020.4
20260509113852 18 41 3.2 3.2 0.00 1.80 1.80 89 1020.2
20260509113349 18 37 0.0 3.2 0.00 1.80 1.80 89 1020.9
20260509112845 18 43 0.0 1.6 0.00 1.80 1.80 89 1020.8
20260509112342 18 53 1.6 4.8 0.00 1.80 1.80 89 1020.8
20260509111840 18 57 1.6 4.8 0.00 1.80 1.80 88 1020.6
20260509111336 18 45 0.0 4.8 0.00 1.80 1.80 88 1020.5
20260509110834 18 83 0.0 3.2 0.00 1.80 1.80 88 1020.4
20260509110330 18 28 3.2 4.8 0.00 1.80 1.80 88 1020.5